Hourly Weather Kozyri

Today, 27 October, Tuesday

Time Temperature Precipitation Wind Pressure Humidity
00:00 +8°C° 0 mm 3 mps 759 mmHg 62%
01:00 +7°C° 0 mm 4 mps 759 mmHg 63%
02:00 +6°C° 0 mm 4 mps 759 mmHg 64%
03:00 +6°C° 0 mm 4 mps 759 mmHg 67%
04:00 +6°C° 0 mm 4 mps 759 mmHg 69%
05:00 +6°C° 0 mm 4 mps 759 mmHg 70%
06:00 +5°C° 0 mm 4 mps 759 mmHg 72%
07:00 +6°C° 0 mm 5 mps 759 mmHg 68%
08:00 +7°C° 0 mm 6 mps 760 mmHg 65%
09:00 +8°C° 0 mm 6 mps 760 mmHg 62%
10:00 +9°C° 0 mm 7 mps 760 mmHg 57%
11:00 +11°C° 0 mm 7 mps 760 mmHg 53%
12:00 +12°C° 0 mm 7 mps 760 mmHg 49%
13:00 +12°C° 0 mm 7 mps 760 mmHg 48%
14:00 +13°C° 0 mm 6 mps 760 mmHg 47%
15:00 +14°C° 0 mm 7 mps 760 mmHg 46%
16:00 +13°C° 0 mm 6 mps 760 mmHg 50%
17:00 +10°C° 0 mm 6 mps 760 mmHg 54%
18:00 +9°C° 0 mm 5 mps 760 mmHg 58%
19:00 +9°C° 0 mm 6 mps 760 mmHg 60%
20:00 +8°C° 0 mm 6 mps 760 mmHg 62%
21:00 +6°C° 0 mm 7 mps 760 mmHg 64%
22:00 +7°C° 0 mm 6 mps 760 mmHg 65%
23:00 +5°C° 0 mm 6 mps 760 mmHg 65%

Tomorrow, 28 October, Wednesday

Time Temperature Precipitation Wind Pressure Humidity
00:00 +4°C° 0 mm 6 mps 760 mmHg 65%
01:00 +4°C° 0 mm 6 mps 760 mmHg 64%
02:00 +4°C° 0 mm 6 mps 760 mmHg 63%
03:00 +4°C° 0 mm 6 mps 760 mmHg 62%
04:00 +3°C° 0 mm 6 mps 760 mmHg 62%
05:00 +3°C° 0 mm 6 mps 760 mmHg 62%
06:00 +3°C° 0 mm 6 mps 759 mmHg 62%
07:00 +4°C° 0 mm 6 mps 760 mmHg 61%
08:00 +4°C° 0 mm 7 mps 760 mmHg 60%
09:00 +5°C° 0 mm 7 mps 760 mmHg 60%
10:00 +6°C° 0 mm 7 mps 760 mmHg 60%
11:00 +8°C° 0 mm 7 mps 759 mmHg 59%
12:00 +9°C° 0 mm 7 mps 759 mmHg 59%
13:00 +10°C° 0 mm 7 mps 759 mmHg 56%
14:00 +11°C° 0 mm 6 mps 759 mmHg 54%
15:00 +11°C° 0 mm 6 mps 758 mmHg 51%
16:00 +10°C° 0 mm 6 mps 758 mmHg 53%
17:00 +9°C° 0 mm 5 mps 758 mmHg 55%
18:00 +8°C° 0 mm 5 mps 758 mmHg 58%
19:00 +7°C° 0 mm 5 mps 758 mmHg 57%
20:00 +7°C° 0 mm 5 mps 758 mmHg 57%
21:00 +6°C° 0 mm 5 mps 758 mmHg 57%
22:00 +6°C° 0 mm 5 mps 758 mmHg 56%
23:00 +6°C° 0 mm 5 mps 758 mmHg 55%

Day after tomorrow, 29 October, Thursday

Time Temperature Precipitation Wind Pressure Humidity
00:00 +5°C° 0 mm 5 mps 757 mmHg 54%
01:00 +5°C° 0 mm 5 mps 757 mmHg 55%
02:00 +5°C° 0 mm 5 mps 757 mmHg 56%
03:00 +3°C° 0 mm 5 mps 757 mmHg 57%
04:00 +3°C° 0 mm 5 mps 757 mmHg 61%
05:00 +3°C° 0 mm 5 mps 757 mmHg 65%
06:00 +2°C° 0 mm 5 mps 757 mmHg 69%
07:00 +3°C° 0 mm 5 mps 756 mmHg 67%
08:00 +5°C° 0 mm 5 mps 756 mmHg 64%
09:00 +5°C° 0 mm 6 mps 756 mmHg 61%
10:00 +8°C° 0 mm 6 mps 756 mmHg 58%
11:00 +10°C° 0 mm 6 mps 756 mmHg 54%
12:00 +13°C° 0 mm 6 mps 755 mmHg 50%
13:00 +13°C° 0 mm 6 mps 755 mmHg 50%
14:00 +14°C° 0 mm 6 mps 754 mmHg 50%
15:00 +15°C° 0 mm 6 mps 754 mmHg 50%
16:00 +14°C° 0 mm 5 mps 754 mmHg 57%
17:00 +12°C° 0 mm 5 mps 754 mmHg 65%
18:00 +11°C° 0 mm 4 mps 753 mmHg 72%
19:00 +11°C° 0 mm 4 mps 753 mmHg 73%
20:00 +10°C° 0 mm 5 mps 753 mmHg 75%
21:00 +10°C° 0 mm 5 mps 753 mmHg 76%
22:00 +10°C° 0.2 mm 5 mps 752 mmHg 78%
23:00 +11°C° 0.2 mm 4 mps 752 mmHg 80%

30 October, Friday

Time Temperature Precipitation Wind Pressure Humidity
00:00 +11°C° 0.2 mm 4 mps 752 mmHg 82%
01:00 +11°C° 0.2 mm 4 mps 752 mmHg 83%
02:00 +11°C° 0.2 mm 4 mps 751 mmHg 84%
03:00 +11°C° 0.2 mm 4 mps 751 mmHg 85%
04:00 +10°C° 0 mm 5 mps 751 mmHg 85%
05:00 +10°C° 0 mm 5 mps 751 mmHg 85%
06:00 +10°C° 0 mm 6 mps 751 mmHg 85%
07:00 +10°C° 0 mm 6 mps 751 mmHg 84%
08:00 +11°C° 0 mm 6 mps 750 mmHg 83%
09:00 +11°C° 0 mm 6 mps 750 mmHg 82%
10:00 +13°C° 0 mm 6 mps 750 mmHg 80%
11:00 +14°C° 0 mm 6 mps 750 mmHg 78%
12:00 +15°C° 0 mm 6 mps 749 mmHg 76%
13:00 +16°C° 0.3 mm 6 mps 749 mmHg 76%
14:00 +16°C° 0.3 mm 6 mps 749 mmHg 76%
15:00 +16°C° 0.3 mm 6 mps 749 mmHg 75%
16:00 +16°C° 0.7 mm 5 mps 748 mmHg 78%
17:00 +15°C° 0.7 mm 5 mps 748 mmHg 81%
18:00 +15°C° 0.7 mm 4 mps 748 mmHg 84%
19:00 +14°C° 0.9 mm 4 mps 748 mmHg 87%
20:00 +14°C° 0.9 mm 4 mps 748 mmHg 91%
21:00 +13°C° 0.9 mm 3 mps 748 mmHg 94%
22:00 +13°C° 0.1 mm 4 mps 748 mmHg 94%
23:00 +13°C° 0.1 mm 4 mps 748 mmHg 93%

31 October, Saturday

Time Temperature Precipitation Wind Pressure Humidity
00:00 +12°C° 0.1 mm 4 mps 748 mmHg 92%
01:00 +12°C° 0 mm 4 mps 748 mmHg 91%
02:00 +12°C° 0 mm 4 mps 749 mmHg 90%
03:00 +12°C° 0 mm 4 mps 749 mmHg 88%
04:00 +11°C° 0 mm 4 mps 749 mmHg 89%
05:00 +11°C° 0 mm 3 mps 750 mmHg 90%
06:00 +10°C° 0 mm 3 mps 750 mmHg 91%
07:00 +10°C° 0 mm 2 mps 750 mmHg 88%
08:00 +12°C° 0 mm 2 mps 750 mmHg 84%
09:00 +12°C° 0 mm 2 mps 751 mmHg 81%
10:00 +13°C° 0 mm 2 mps 751 mmHg 75%
11:00 +15°C° 0 mm 2 mps 751 mmHg 69%
12:00 +16°C° 0 mm 2 mps 752 mmHg 63%
13:00 +16°C° 0 mm 2 mps 752 mmHg 62%
14:00 +17°C° 0 mm 2 mps 751 mmHg 61%
15:00 +17°C° 0 mm 2 mps 751 mmHg 61%
16:00 +16°C° 0 mm 2 mps 752 mmHg 64%
17:00 +16°C° 0 mm 3 mps 752 mmHg 68%
18:00 +14°C° 0 mm 3 mps 752 mmHg 71%
19:00 +13°C° 1.1 mm 3 mps 752 mmHg 77%
20:00 +13°C° 1.1 mm 3 mps 752 mmHg 84%
21:00 +12°C° 1.1 mm 3 mps 752 mmHg 90%
22:00 +12°C° 0 mm 3 mps 752 mmHg 92%
23:00 +11°C° 0 mm 3 mps 753 mmHg 93%

1 November, Sunday

Time Temperature Precipitation Wind Pressure Humidity
00:00 +12°C° 0 mm 2 mps 753 mmHg 94%
01:00 +12°C° 0 mm 2 mps 753 mmHg 94%
02:00 +10°C° 0 mm 2 mps 753 mmHg 93%
03:00 +10°C° 0 mm 2 mps 754 mmHg 93%
04:00 +10°C° 0 mm 2 mps 754 mmHg 94%
05:00 +9°C° 0 mm 2 mps 754 mmHg 94%
06:00 +9°C° 0 mm 2 mps 754 mmHg 95%
07:00 +10°C° 0 mm 2 mps 754 mmHg 93%
08:00 +10°C° 0 mm 3 mps 755 mmHg 90%
09:00 +11°C° 0 mm 3 mps 755 mmHg 88%
10:00 +12°C° 0 mm 3 mps 755 mmHg 81%
11:00 +13°C° 0 mm 3 mps 756 mmHg 75%
12:00 +16°C° 0 mm 3 mps 756 mmHg 68%
13:00 +16°C° 0 mm 3 mps 756 mmHg 66%
14:00 +16°C° 0 mm 3 mps 756 mmHg 63%
15:00 +17°C° 0 mm 3 mps 756 mmHg 60%
16:00 +16°C° 0 mm 2 mps 756 mmHg 64%
17:00 +15°C° 0 mm 2 mps 757 mmHg 68%
18:00 +15°C° 0 mm 2 mps 757 mmHg 71%
19:00 +14°C° 0 mm 2 mps 757 mmHg 75%
20:00 +14°C° 0 mm 2 mps 757 mmHg 78%
21:00 +13°C° 0 mm 2 mps 757 mmHg 82%
22:00 +13°C° 0.3 mm 2 mps 758 mmHg 84%
23:00 +13°C° 0.3 mm 2 mps 758 mmHg 87%
Show more